Flag for Italy Weather past 2 weeks in Venice, Italy

Now
81 °F

Scattered clouds.


Feels Like: 83 °F
Forecast: 69 / 79 °F
Wind: 5 mph from Southeast

Location: Venice / Tessera

Current Time: Jul 28, 2014 at 6:32:16 PM

Latest Report: Jul 28, 2014 at 5:50 PM


Visibility: N/A

Pressure: 29.80 "Hg

Humidity: 66%

Dew point: 68 °F

Location of VeniceLocation

Historic Weather in Venice — Graph

°F

Venice temperature yesterday

Maximum temperature yesterday: 79 °F (at 4:20 PM)
Minimum temperature yesterday: 63 °F (at 12:50 AM)
Average temperature yesterday: 70 °F

Past Weeks' High & Low Weather Summary

 TemperatureHumidityPressure
High88 °F (Jul 16, 3:50 PM)100% (Jul 14, 9:50 AM)30.09 "Hg (Jul 14, 9:50 AM)
Low63 °F (Jul 22, 5:20 AM)37% (Jul 15, 2:20 PM)29.71 "Hg (Jul 21, 3:50 PM)
Average75 °F72%29.91 "Hg
* Reported Jul 13 5:20 PM — Jul 28 5:20 PM, Venice, Weather by CustomWeather, © 2014

Note: Actual official high and low records may vary slightly from our data, if they occured in-between our weather recording intervals... More about our weather records

Advertising

Venice weather history for previous 24 hours

 ConditionsComfort  
Time TempWeatherWind HumidityBarometerVisibility
5:20 PM
Jul 28
79 °FPassing clouds.5 mph70%29.80 "HgN/A
4:50 PM79 °FPassing clouds.7 mph74%29.80 "HgN/A
4:20 PM79 °FScattered clouds.9 mph74%29.80 "HgN/A
3:50 PM79 °FScattered clouds.8 mph70%29.80 "HgN/A
3:20 PM82 °FSunny.9 mph62%29.80 "Hg10 mi
2:50 PM82 °FPassing clouds.9 mph62%29.80 "HgN/A
2:20 PM82 °FSunny.9 mph58%29.83 "Hg10 mi
1:50 PM82 °FSunny.7 mph62%29.83 "Hg10 mi
1:20 PM82 °FSunny.7 mph58%29.83 "Hg10 mi
12:50 PM82 °FSunny.5 mph62%29.83 "Hg10 mi
12:20 PM81 °FSunny.5 mph62%29.83 "Hg10 mi
11:50 AM81 °FSunny.5 mph62%29.83 "Hg10 mi
11:20 AM79 °FPassing clouds.3 mph70%29.83 "HgN/A
10:50 AM77 °FPassing clouds.5 mph74%29.83 "HgN/A
10:20 AM75 °FPassing clouds.3 mph74%29.86 "HgN/A
9:50 AM75 °FPassing clouds.1 mph78%29.86 "HgN/A
9:20 AM75 °FPassing clouds.2 mph74%29.86 "HgN/A
8:50 AM73 °FSunny.2 mph89%29.86 "Hg10 mi
8:20 AM70 °FSunny.No wind88%29.83 "Hg10 mi
7:50 AM70 °FSunny.1 mph88%29.83 "Hg10 mi
7:20 AM70 °FScattered clouds.2 mph83%29.86 "HgN/A
6:50 AM70 °FPartly sunny.No wind83%29.83 "HgN/A
6:20 AM70 °FPassing clouds.No wind83%29.83 "HgN/A
5:50 AM70 °FPassing clouds.2 mph83%29.83 "HgN/A
5:20 AM70 °FPassing clouds.1 mph83%29.83 "HgN/A
4:20 AM70 °FClear.3 mph78%29.83 "Hg10 mi
3:50 AM70 °FClear.5 mph83%29.86 "Hg10 mi
3:20 AM70 °FClear.7 mph83%29.86 "Hg10 mi
2:50 AM70 °FClear.3 mph83%29.86 "Hg10 mi
2:20 AM70 °FClear.2 mph83%29.86 "Hg10 mi
1:50 AM70 °FClear.1 mph83%29.86 "Hg10 mi
1:20 AM72 °FClear.5 mph83%29.86 "Hg10 mi
12:50 AM72 °FClear.3 mph88%29.89 "Hg10 mi
12:20 AM72 °FClear.5 mph88%29.86 "Hg10 mi
11:50 PM
Jul 27
72 °FClear.6 mph88%29.86 "Hg10 mi
11:20 PM72 °FClear.6 mph88%29.89 "Hg10 mi
10:50 PM73 °FClear.3 mph83%29.86 "Hg10 mi
10:20 PM73 °FClear.2 mph83%29.86 "Hg10 mi
9:50 PM73 °FClear.3 mph83%29.86 "Hg10 mi
9:20 PM75 °FSunny.3 mph74%29.86 "Hg10 mi
8:50 PM75 °FSunny.3 mph74%29.83 "Hg10 mi
8:20 PM77 °FSunny.5 mph69%29.83 "Hg10 mi
7:50 PM77 °FSunny.5 mph69%29.83 "Hg10 mi
7:20 PM79 °FPassing clouds.2 mph58%29.83 "HgN/A
6:50 PM79 °FPassing clouds.2 mph61%29.83 "HgN/A
6:20 PM79 °FPassing clouds.5 mph61%29.83 "HgN/A
Weather by CustomWeather, © 2014

See weather overviewHow to use our weather pages